Wind_Speed
19 14 14 4 4 5 1 7 6 4 6 12 20 17 22 13 5 7 13 20 16 19 16 17 16 16 16 15 15 16 16 15 14 13 12 12 11 10 9 8 6 5 4 3 3 3 4 5 5
18 14 5 3 3 3 3 2 4 13 8 6 21 22 22 21 10 9 10 21 19 17 16 18 16 16 15 15 15 15 15 15 14 13 12 11 10 9 8 7 6 5 4 3 3 5 6 8 9
18 5 2 3 2 4 5 4 4 9 9 11 13 13 10 6 15 17 24 24 25 17 17 17 17 16 16 15 14 15 15 14 13 12 12 11 10 9 8 7 7 6 6 6 7 7 8 10 11
8 3 4 2 6 18 10 10 2 6 12 11 9 14 16 16 10 22 32 28 24 21 19 17 16 16 15 15 14 15 15 14 13 13 12 12 11 11 10 9 9 9 9 9 9 10 11 12 13
8 2 2 4 3 7 9 7 7 9 3 9 16 9 7 11 31 30 31 24 23 21 19 17 16 16 15 14 14 15 16 16 16 15 14 12 13 13 12 12 12 11 13 12 13 13 14 15 16
3 2 3 6 3 12 3 10 5 9 7 10 7 13 8 16 22 32 33 33 18 16 18 18 17 17 18 18 19 20 21 21 20 20 18 13 15 13 14 14 11 18 18 17 16 17 18 19 20
5 1 6 11 7 3 11 10 5 11 10 6 10 10 8 10 24 35 38 24 19 18 21 22 22 23 24 23 22 21 21 20 18 20 20 18 19 14 20 17 16 21 23 19 21 23 24 23 23
4 3 9 12 3 8 9 13 9 10 4 14 17 5 9 24 34 39 35 35 31 25 24 25 25 24 21 20 20 20 19 17 17 16 15 16 19 18 17 17 23 20 20 22 25 26 25 25 27
5 2 9 13 7 18 20 17 13 7 7 11 6 12 17 21 31 39 35 26 27 23 20 20 21 19 18 18 17 16 17 15 15 15 17 14 17 15 15 15 18 21 18 22 23 24 23 21 25
1 3 9 9 3 5 25 15 10 7 17 15 16 10 20 26 25 26 27 27 32 29 26 25 20 16 14 14 16 17 14 15 14 15 16 18 15 17 18 18 19 19 23 25 23 22 24 28 28
8 8 12 9 7 9 16 6 6 9 7 18 17 10 9 14 20 18 23 30 32 30 23 19 23 23 22 19 18 15 14 11 13 14 16 18 15 20 23 23 21 22 24 19 23 26 27 28 29
7 12 11 3 7 8 1 4 8 10 6 18 16 11 8 6 16 26 28 31 34 30 24 17 17 17 13 12 13 10 12 13 10 11 13 18 14 17 19 19 20 23 23 25 26 26 23 29 28
7 6 6 5 7 6 7 8 9 8 12 16 14 11 9 11 24 29 33 35 32 28 19 15 15 15 14 13 13 11 11 13 11 12 12 8 9 14 10 15 15 18 21 26 28 28 28 30 29
3 5 3 2 4 5 4 0 9 4 8 12 11 11 9 17 25 26 30 30 32 26 18 12 13 11 10 11 12 10 11 11 11 13 7 4 8 10 8 10 11 15 19 23 26 27 30 31 24
6 6 7 4 5 5 5 8 6 10 9 11 10 7 11 15 25 25 30 32 29 22 15 12 11 9 11 12 12 10 12 12 13 14 8 11 18 8 10 13 17 14 17 17 21 23 29 25 34
5 6 5 8 9 5 11 7 6 8 9 8 10 8 13 15 22 31 34 34 28 23 19 15 10 9 9 8 10 10 12 13 14 14 16 18 23 16 15 19 17 15 15 21 20 24 26 32 32
5 6 8 10 10 7 7 5 7 8 9 8 8 9 10 12 21 31 34 34 27 23 18 12 7 7 8 8 11 12 13 14 15 16 19 18 18 26 17 16 17 19 26 22 24 29 31 30 27
9 5 9 8 7 9 7 8 8 10 9 8 6 8 13 19 19 31 36 35 30 23 17 10 8 7 11 9 10 12 14 17 19 20 19 28 31 21 28 26 24 29 24 25 24 24 26 26 29
7 5 8 7 6 5 7 5 8 10 7 9 8 8 11 18 22 32 33 32 29 22 20 15 10 7 7 12 14 16 21 21 22 20 29 29 23 34 27 30 31 24 20 21 25 27 28 28 27
8 7 9 3 5 4 6 5 6 7 9 9 10 9 14 16 15 23 27 33 28 25 22 17 12 9 3 7 9 10 13 13 13 24 22 26 29 29 29 25 27 28 27 21 22 26 26 23 21
6 4 6 6 4 4 3 5 8 9 6 8 6 6 19 19 17 14 22 27 28 24 23 18 11 10 6 3 1 7 8 11 18 21 25 23 21 20 28 27 26 29 22 28 25 25 24 23 24
5 8 9 11 8 2 3 5 4 13 11 6 8 8 16 16 14 12 20 20 27 22 20 15 14 14 9 4 3 4 3 7 13 20 22 18 16 20 23 29 29 31 29 26 26 24 25 25 19
5 8 7 6 8 6 10 5 6 11 10 16 14 9 13 14 10 12 17 19 15 18 21 20 15 14 10 2 4 4 8 12 16 18 15 20 20 28 19 24 27 29 26 25 23 24 25 25 23
5 7 8 6 2 4 4 5 5 7 5 5 19 7 9 14 13 13 18 18 18 10 10 17 15 13 2 3 2 5 8 12 13 15 21 22 27 18 21 25 27 26 24 22 24 21 21 20 20
8 4 4 5 5 4 5 5 3 4 11 9 5 4 17 11 9 6 5 5 17 22 18 16 11 5 7 6 6 8 11 12 16 16 18 23 21 19 25 23 24 26 22 21 21 19 19 19 18
6 1 4 2 3 4 3 2 4 1 7 10 12 12 11 8 2 9 17 18 17 12 8 1 10 16 13 8 14 14 15 16 15 15 20 19 17 22 18 23 23 21 21 24 18 21 19 17 16
6 5 3 1 4 3 4 6 8 7 4 8 14 13 10 8 9 7 8 7 15 22 21 17 16 15 13 12 13 14 14 20 18 20 17 19 21 19 16 21 21 22 21 22 20 20 18 18 16
5 4 6 5 3 3 4 3 2 6 8 9 9 9 9 9 9 9 21 25 27 27 26 26 21 17 16 16 15 16 19 18 15 14 19 19 18 16 18 20 19 22 19 18 18 19 18 20 18
5 5 7 3 3 4 1 3 7 7 6 8 8 8 8 9 10 12 19 25 28 27 26 24 23 19 19 16 18 18 17 18 15 17 19 18 20 20 16 17 19 16 18 19 18 17 18 17 16
2 3 2 5 5 1 4 4 2 9 7 9 7 7 7 11 11 12 20 24 25 25 25 25 24 24 18 19 17 16 16 17 17 17 16 18 20 18 16 15 16 16 17 20 19 18 19 12 14
Wind_Direction
320 332 308 297 35 79 17 63 116 115 329 232 77 79 78 60 62 142 161 127 129 110 108 99 94 91 88 85 83 83 83 80 77 74 72 70 66 66 63 62 59 58 53 30 1 328 299 289 289
318 334 249 281 77 6 279 163 4 155 145 297 82 88 73 91 80 123 131 134 104 105 108 103 99 94 91 88 87 85 83 81 78 74 67 64 61 58 58 54 51 39 21 357 331 311 298 291 287
322 296 53 155 193 242 156 290 36 322 38 87 67 64 80 91 133 150 143 126 131 113 109 104 100 98 92 90 87 84 81 79 76 71 67 60 54 46 41 39 30 17 357 338 322 311 301 294 290
308 19 323 74 14 22 358 127 108 310 28 333 103 59 66 103 93 133 133 130 117 119 115 108 100 92 91 88 85 82 80 75 70 64 57 51 44 38 33 24 18 4 353 336 324 313 304 298 293
293 299 319 307 198 110 9 341 128 77 348 29 85 105 103 89 129 131 114 112 112 112 109 103 98 99 95 87 82 78 75 71 66 60 52 51 50 38 34 21 14 4 352 337 327 319 311 302 294
321 113 330 292 57 99 71 270 149 133 192 101 48 135 119 126 124 119 110 99 91 107 110 105 101 95 90 90 86 84 79 72 66 53 40 47 34 26 22 10 9 359 353 346 337 326 314 303 297
208 359 252 277 160 89 133 244 236 166 193 203 173 119 62 321 142 135 135 120 124 129 122 110 106 98 91 88 83 79 72 67 62 51 51 42 31 32 22 15 6 353 347 344 339 332 324 316 309
218 151 288 280 201 179 167 199 238 182 204 146 163 105 139 205 125 130 144 132 141 146 116 116 113 101 96 92 88 78 69 61 53 44 43 46 38 29 19 17 11 15 2 348 339 337 337 332 320
275 317 267 271 320 108 168 197 214 217 127 95 124 113 124 135 119 131 135 137 144 129 122 129 129 120 102 102 93 78 61 73 58 40 33 45 33 22 12 6 354 351 360 356 353 347 352 360 353
175 221 261 275 316 142 160 180 186 147 116 115 112 123 136 131 137 130 128 127 111 106 94 96 104 166 114 107 87 76 72 63 44 35 30 26 25 19 12 2 1 6 354 350 343 342 339 342 346
250 228 257 288 28 18 141 145 167 161 116 133 135 147 150 157 154 129 117 111 109 103 93 88 88 95 98 99 83 75 65 57 47 21 16 6 17 15 4 3 3 360 353 345 337 336 337 342 339
236 243 248 306 47 4 236 172 130 95 133 133 138 152 151 129 104 113 115 111 105 101 96 95 89 89 84 85 77 67 56 51 43 16 357 346 353 358 358 356 350 352 350 342 344 344 338 337 335
212 239 293 86 56 323 11 106 122 93 106 129 142 143 162 100 98 98 102 103 104 97 96 87 82 77 78 91 71 76 57 48 38 13 352 341 324 350 350 342 341 340 342 334 337 339 337 329 325
271 226 246 55 55 312 45 63 97 130 104 120 127 150 150 120 114 109 103 103 101 100 96 88 73 68 72 80 70 56 30 47 35 21 13 32 4 0 329 348 328 323 331 331 330 328 328 323 325
299 6 325 173 190 200 90 338 125 161 140 136 134 160 119 122 121 118 117 113 112 105 104 97 79 68 54 63 68 49 38 24 34 26 39 18 356 346 336 319 325 312 320 331 331 322 327 320 323
1 355 299 270 200 184 108 251 309 152 125 147 157 179 136 139 127 125 123 120 117 113 98 102 76 65 43 54 30 55 45 31 23 13 358 347 344 343 333 335 323 328 337 333 329 325 321 322 323
298 239 249 261 206 154 120 216 158 150 153 181 183 184 145 118 117 123 125 126 124 121 111 103 72 68 31 28 44 39 33 23 11 357 357 6 5 347 344 354 347 337 332 331 323 318 314 318 316
257 244 271 266 212 131 164 209 173 177 165 180 191 191 136 133 137 130 129 129 128 124 116 109 77 60 35 29 29 29 19 8 4 2 2 351 349 356 344 342 335 331 327 328 331 329 323 317 314
279 343 306 21 71 130 202 206 192 186 178 184 197 210 149 142 138 129 129 132 128 126 123 114 101 73 39 34 34 29 16 5 5 2 345 346 346 347 344 336 335 337 330 325 323 324 317 311 310
343 339 314 314 168 74 36 344 327 186 200 189 197 218 133 133 125 131 128 132 136 138 135 133 125 108 92 56 43 20 13 6 349 339 352 337 337 339 341 350 341 337 331 334 331 326 317 313 313
312 325 352 328 106 148 201 302 272 275 187 190 158 92 136 139 132 135 131 142 146 144 142 142 148 146 140 127 76 6 11 5 349 345 342 338 338 336 331 334 331 330 328 326 328 321 313 307 307
6 12 14 356 15 303 62 274 354 351 314 90 74 75 127 136 135 140 142 137 140 146 155 168 174 155 155 166 34 357 17 357 348 337 329 328 334 326 325 321 326 328 326 326 324 316 316 309 302
294 34 356 334 328 4 345 34 308 32 4 3 335 79 118 137 126 112 104 111 134 159 176 179 158 152 149 109 357 2 351 343 341 334 336 339 326 331 328 328 327 333 330 328 329 327 323 315 306
339 349 348 335 320 346 128 67 295 334 171 115 277 236 133 104 94 102 129 152 173 182 186 137 129 132 146 325 347 350 331 344 2 350 339 329 331 331 330 331 332 337 334 332 333 330 330 332 332
2 34 350 350 1 257 135 151 225 67 76 56 349 325 72 67 83 84 108 121 90 79 80 90 87 79 322 307 19 12 36 13 354 345 329 332 329 329 330 336 330 333 336 330 334 334 334 335 339
323 213 156 295 321 279 115 152 249 78 87 75 79 77 73 86 100 62 89 102 116 128 140 15 322 332 346 21 54 32 22 9 352 335 332 326 324 327 329 333 332 335 330 333 328 329 334 339 345
309 331 233 203 297 18 144 354 8 327 42 55 70 76 68 64 62 112 122 73 36 57 52 41 27 66 55 40 31 24 11 352 343 337 332 326 328 333 329 334 333 331 327 329 334 339 343 345 344
265 219 12 2 31 339 353 111 221 60 46 59 55 42 45 47 69 58 67 60 55 51 45 35 43 32 42 30 22 5 352 346 342 335 338 335 337 335 332 336 332 333 336 340 340 342 345 342 342
12 348 43 314 154 182 292 219 149 126 80 54 52 64 57 45 45 65 71 58 58 51 37 32 23 19 14 19 10 2 347 341 346 337 345 345 341 335 337 341 338 343 338 337 340 341 342 342 344
59 14 259 134 280 91 152 279 126 96 86 72 63 55 57 62 62 55 54 61 50 37 24 16 14 5 1 0 357 347 345 340 345 345 346 345 348 354 346 340 332 329 328 332 331 338 335 336 339
Height
782 781 779 780 808 810 833 819 813 816 825 804 754 762 779 780 791 825 798 803 806 806 810 809 810 809 810 811 812 812 812 813 815 817 817 818 819 819 820 820 821 822 822 822 822 823 823 823 823
781 780 779 784 819 835 842 804 818 807 814 782 764 771 776 800 790 798 802 806 805 808 811 810 812 812 814 814 815 815 814 815 817 818 819 820 820 821 820 821 822 822 822 822 822 822 823 823 822
781 781 789 800 814 826 827 804 803 781 775 761 773 766 775 796 795 797 801 804 807 810 811 812 813 815 815 818 819 818 817 818 819 820 820 821 822 822 822 822 822 822 822 822 822 822 821 822 821
781 782 785 810 821 809 802 790 799 790 782 776 770 787 782 786 792 798 803 806 806 809 811 813 814 816 819 820 821 820 819 820 822 821 822 823 823 823 823 824 823 823 822 822 822 821 820 820 819
781 786 811 812 801 799 810 806 794 793 788 783 776 796 795 790 795 801 806 808 811 815 815 815 816 816 819 822 823 822 822 823 824 823 824 824 824 824 824 824 823 823 823 822 821 820 818 817 817
794 788 822 827 811 802 807 806 787 776 780 790 789 783 792 794 799 804 809 812 818 820 818 817 818 820 821 822 824 825 826 827 826 826 826 826 826 825 825 825 824 823 822 821 820 818 817 816 814
796 806 818 808 812 802 799 798 800 788 788 796 782 789 804 800 799 800 805 808 815 816 819 817 820 821 823 825 826 829 829 829 829 828 828 828 827 826 827 825 824 823 822 821 819 816 815 813 812
782 796 809 796 801 793 796 792 785 782 780 774 776 793 810 795 799 800 804 808 813 820 815 818 822 824 824 827 828 830 831 830 830 830 829 828 827 827 826 826 824 823 821 819 817 815 812 810 808
770 809 814 798 786 792 783 794 784 765 772 770 775 776 784 791 796 800 806 811 814 819 820 823 825 825 825 828 829 832 833 832 832 830 831 830 829 827 827 826 824 823 820 818 816 814 810 808 806
783 809 797 773 768 771 784 776 773 772 776 781 779 777 782 787 790 795 800 807 813 819 823 825 826 826 828 830 833 834 833 833 832 831 831 831 830 830 829 827 825 823 820 818 814 811 809 807 805
778 799 773 766 760 757 772 772 762 770 784 780 784 783 782 783 788 795 801 806 811 816 820 823 825 827 829 832 833 833 833 834 833 831 831 830 830 829 828 826 824 823 820 817 814 811 808 806 803
788 769 763 760 756 759 767 763 772 769 770 768 774 778 782 784 789 795 803 808 812 817 822 828 829 828 830 831 832 833 833 832 833 832 832 830 829 829 828 827 825 822 819 816 814 811 808 806 802
772 764 757 754 754 759 757 771 775 774 764 765 772 777 781 789 792 799 803 808 813 817 824 829 831 832 833 834 834 833 833 833 832 832 830 830 829 829 828 826 824 822 820 816 812 809 806 804 801
755 757 758 753 756 760 766 770 770 773 764 769 773 778 781 789 792 799 804 810 814 820 826 831 834 835 836 835 834 833 833 833 832 831 830 829 829 828 825 824 822 820 818 816 812 809 806 802 798
754 772 767 759 759 765 760 780 785 768 764 771 774 776 783 788 792 798 804 810 815 822 828 833 836 838 837 836 835 835 834 833 832 832 830 829 828 825 823 821 820 818 816 813 811 808 804 800 795
771 775 801 771 762 763 770 807 777 768 770 774 774 776 781 785 789 797 803 809 817 823 830 835 837 839 839 838 838 837 835 835 833 833 832 830 827 825 822 820 818 816 813 811 808 805 802 798 794
785 814 800 784 759 767 775 792 775 766 771 775 775 775 779 787 791 796 802 809 816 823 829 834 838 840 840 840 838 837 837 836 835 833 831 829 826 824 821 818 817 813 811 808 806 803 799 795 792
812 804 794 785 762 764 783 785 774 766 768 771 772 774 779 784 790 794 800 807 814 821 827 831 837 840 841 840 839 838 837 837 835 833 830 828 825 823 820 817 814 811 808 805 802 799 797 794 789
781 786 791 772 757 768 777 777 776 769 768 772 773 773 780 781 787 793 799 806 812 819 823 828 835 839 841 841 839 837 836 836 835 832 830 828 824 822 818 815 811 807 804 801 799 796 793 789 787
779 789 794 772 761 770 782 783 772 771 769 766 767 769 776 784 789 794 800 805 811 816 819 825 830 834 838 838 837 836 835 834 833 831 828 826 824 821 817 813 810 807 802 799 797 795 790 786 784
783 791 792 794 771 768 777 795 785 768 764 763 761 761 772 781 790 796 801 805 810 814 816 824 825 828 831 833 833 832 830 828 827 826 824 822 821 819 815 811 808 804 801 797 794 792 788 782 779
798 777 781 787 802 821 784 835 794 790 776 773 772 772 776 782 787 794 800 805 810 814 817 820 822 824 827 830 830 828 825 823 820 822 822 819 817 814 811 808 805 801 797 793 790 787 784 781 776
791 776 786 787 804 809 809 830 817 809 820 806 793 774 781 785 790 798 803 807 811 812 814 816 820 824 827 828 827 827 824 822 818 819 819 817 814 811 808 805 802 798 794 790 786 783 781 777 774
770 783 791 795 807 841 831 833 832 827 826 822 813 786 783 790 796 803 808 810 812 812 816 819 821 823 827 824 821 820 821 818 816 816 815 813 810 808 805 802 799 795 792 788 784 781 778 774 771
787 804 847 848 848 842 809 831 834 814 810 805 803 789 794 801 806 810 813 812 816 818 819 820 822 823 823 822 819 818 819 818 815 814 812 809 807 804 801 799 795 793 789 786 782 779 776 772 769
796 803 842 853 854 843 805 834 833 804 801 796 797 804 804 810 811 810 813 814 815 814 814 818 819 818 819 821 820 817 817 817 815 813 810 808 804 801 799 796 793 790 787 784 780 777 773 769 766
801 819 794 819 816 840 839 830 817 808 802 798 799 804 810 811 811 813 811 813 816 818 818 820 819 818 820 819 818 816 815 814 812 809 808 806 802 799 796 794 790 787 784 781 777 774 770 767 764
794 786 830 836 859 857 843 841 841 822 819 816 818 817 814 813 815 816 819 821 823 824 823 823 824 824 823 820 818 816 814 812 810 808 805 803 799 796 794 791 788 785 781 778 775 772 768 765 762
809 816 821 825 834 858 859 847 815 825 820 816 817 818 819 819 819 821 823 825 828 829 831 830 829 826 824 820 818 815 814 812 807 805 802 800 797 795 792 790 787 784 780 777 774 771 767 764 762
794 807 814 851 843 838 853 858 807 817 817 817 820 818 819 821 823 825 828 830 831 831 830 829 828 825 823 819 816 814 811 810 806 802 800 799 796 794 791 789 786 783 779 777 773 770 766 762 760